MQT5084 EDDL-LIMC

Flight info

Callsign MQT5084
Flight time 1h 7m
Altitude 33000
Route KUMIK5Z/05R KUMIK L603 BOMBI N850 RINEX DCT KRH DCT NATOR DCT TRA N850 DEGAD Z424 RIXUV
Aircraft A388/J-SADE2E3FGHIJ3J4J5M1RWXY/LB1D1

Departure

Time 2026-04-30 12:16
Airport Düsseldorf Airport (EDDL)

Arrival

Time 2026-04-30 13:24
Airport Milan Malpensa International Airport (LIMC)
Time Latitude Longitude Altitude Speed Heading
2026-04-30 11:45 51.27602 6.76188 132 ft 0 kts 45°
2026-04-30 12:08 51.27599 6.76184 135 ft 1 kts 45°
2026-04-30 12:08 51.27593 6.76174 133 ft 1 kts 45°
2026-04-30 12:08 51.27583 6.76159 126 ft 3 kts 45°
2026-04-30 12:08 51.27569 6.76135 136 ft 3 kts 45°
2026-04-30 12:09 51.27552 6.76116 135 ft 3 kts 29°
2026-04-30 12:09 51.27536 6.76114 129 ft 2 kts 349°
2026-04-30 12:09 51.27527 6.76121 135 ft 0 kts 332°
2026-04-30 12:13 51.27590 6.76067 133 ft 17 kts 333°
2026-04-30 12:13 51.27706 6.76040 128 ft 15 kts
2026-04-30 12:13 51.27801 6.76045 133 ft 13 kts
2026-04-30 12:14 51.27843 6.75989 129 ft 9 kts 277°
2026-04-30 12:14 51.27848 6.75864 134 ft 8 kts 277°
2026-04-30 12:14 51.27857 6.75747 126 ft 14 kts 277°
2026-04-30 12:14 51.27885 6.75606 129 ft 12 kts 291°
2026-04-30 12:15 51.27869 6.75464 123 ft 16 kts 233°
2026-04-30 12:15 51.27844 6.75411 126 ft 5 kts 242°
2026-04-30 12:15 51.27847 6.75349 125 ft 10 kts 313°
2026-04-30 12:15 51.27939 6.75267 125 ft 14 kts 336°
2026-04-30 12:16 51.28013 6.75297 126 ft 15 kts 53°
2026-04-30 12:16 51.28185 6.75668 128 ft 90 kts 53°
2026-04-30 12:16 51.28738 6.76832 145 ft 164 kts 54°
2026-04-30 12:16 51.29441 6.78268 964 ft 164 kts 57°
2026-04-30 12:17 51.30816 6.81177 2669 ft 175 kts 58°
2026-04-30 12:17 51.31577 6.82822 3000 ft 193 kts 57°
2026-04-30 12:17 51.32422 6.84615 3232 ft 210 kts 57°
2026-04-30 12:18 51.33349 6.86594 3615 ft 233 kts 58°
2026-04-30 12:18 51.34340 6.88776 4167 ft 250 kts 59°
2026-04-30 12:18 51.34922 6.90351 4878 ft 244 kts 72°
2026-04-30 12:18 51.35226 6.93829 6237 ft 241 kts 99°
2026-04-30 12:19 51.35025 6.95626 6835 ft 245 kts 101°
2026-04-30 12:19 51.34638 6.99214 8080 ft 250 kts 99°
2026-04-30 12:19 51.34450 7.01091 8679 ft 254 kts 99°
2026-04-30 12:19 51.34075 7.04831 9934 ft 260 kts 99°
2026-04-30 12:20 51.33785 7.07719 10758 ft 268 kts 99°
2026-04-30 12:20 51.33579 7.09770 11009 ft 284 kts 99°
2026-04-30 12:20 51.33250 7.13016 11275 ft 308 kts 99°
2026-04-30 12:20 51.32905 7.16427 11806 ft 319 kts 99°
2026-04-30 12:21 51.32556 7.19994 12625 ft 322 kts 97°
2026-04-30 12:21 51.32284 7.23566 13384 ft 327 kts 96°
2026-04-30 12:21 51.32036 7.27197 14153 ft 331 kts 95°
2026-04-30 12:21 51.31781 7.30885 14837 ft 335 kts 96°
2026-04-30 12:22 51.31504 7.34600 15549 ft 339 kts 98°
2026-04-30 12:22 51.30889 7.38211 16231 ft 344 kts 110°
2026-04-30 12:22 51.29758 7.41605 16931 ft 350 kts 122°
2026-04-30 12:22 51.28211 7.44665 17567 ft 356 kts 127°
2026-04-30 12:23 51.26611 7.47711 18221 ft 360 kts 127°
2026-04-30 12:23 51.25007 7.50809 18839 ft 364 kts 126°
2026-04-30 12:23 51.23392 7.53941 19408 ft 367 kts 126°
2026-04-30 12:23 51.21758 7.57103 19957 ft 371 kts 127°
2026-04-30 12:24 51.20107 7.60291 20502 ft 375 kts 127°
2026-04-30 12:24 51.18438 7.63505 21040 ft 379 kts 126°
2026-04-30 12:24 51.16695 7.66698 21541 ft 385 kts 131°
2026-04-30 12:24 51.14694 7.69574 22089 ft 391 kts 138°
2026-04-30 12:25 51.12520 7.72195 22580 ft 395 kts 139°
2026-04-30 12:25 51.10323 7.74866 23101 ft 399 kts 139°
2026-04-30 12:25 51.08115 7.77570 23614 ft 402 kts 139°
2026-04-30 12:25 51.05891 7.80294 24150 ft 404 kts 139°
2026-04-30 12:26 51.03657 7.83029 24626 ft 407 kts 139°
2026-04-30 12:26 51.01405 7.85782 25082 ft 410 kts 139°
2026-04-30 12:26 50.99139 7.88546 25548 ft 412 kts 139°
2026-04-30 12:26 50.96857 7.91325 26012 ft 415 kts 139°
2026-04-30 12:27 50.94558 7.94123 26511 ft 418 kts 139°
2026-04-30 12:27 50.92242 7.96936 27026 ft 421 kts 139°
2026-04-30 12:27 50.89912 7.99762 27543 ft 424 kts 139°
2026-04-30 12:27 50.87555 8.02616 28077 ft 428 kts 138°
2026-04-30 12:28 50.85244 8.05594 28603 ft 428 kts 133°
2026-04-30 12:28 50.83170 8.08957 29143 ft 428 kts 126°
2026-04-30 12:28 50.81353 8.12697 29706 ft 428 kts 120°
2026-04-30 12:28 50.79723 8.16632 30233 ft 431 kts 119°
2026-04-30 12:29 50.78064 8.20606 30755 ft 434 kts 120°
2026-04-30 12:29 50.76383 8.24596 31242 ft 438 kts 120°
2026-04-30 12:29 50.74687 8.28601 31729 ft 441 kts 120°
2026-04-30 12:29 50.72975 8.32635 32209 ft 444 kts 120°
2026-04-30 12:30 50.71172 8.36630 32653 ft 450 kts 126°
2026-04-30 12:30 50.68991 8.40232 33116 ft 458 kts 134°
2026-04-30 12:30 50.66443 8.43337 33419 ft 471 kts 142°
2026-04-30 12:30 50.63536 8.45930 33404 ft 488 kts 148°
2026-04-30 12:31 50.57487 8.50969 33397 ft 493 kts 148°
2026-04-30 12:31 50.51438 8.56050 33397 ft 493 kts 147°
2026-04-30 12:32 50.45388 8.61021 33392 ft 495 kts 151°
2026-04-30 12:32 50.38825 8.64600 33395 ft 500 kts 160°
2026-04-30 12:33 50.32145 8.67691 33400 ft 500 kts 159°
2026-04-30 12:33 50.25480 8.70805 33388 ft 500 kts 159°
2026-04-30 12:34 50.18809 8.73919 33392 ft 500 kts 159°
2026-04-30 12:34 50.12141 8.77022 33386 ft 500 kts 159°
2026-04-30 12:35 50.05266 8.78915 33388 ft 509 kts 175°
2026-04-30 12:35 49.98251 8.77511 33384 ft 516 kts 190°
2026-04-30 12:36 49.91258 8.75036 33383 ft 515 kts 189°
2026-04-30 12:36 49.84258 8.72622 33381 ft 515 kts 189°
2026-04-30 12:37 49.77265 8.70221 33381 ft 515 kts 189°
2026-04-30 12:37 49.70227 8.68481 33372 ft 510 kts 181°
2026-04-30 12:38 49.63150 8.67575 33369 ft 510 kts 181°
2026-04-30 12:38 49.56076 8.66637 33367 ft 510 kts 181°
2026-04-30 12:39 49.49001 8.65692 33374 ft 510 kts 181°
2026-04-30 12:39 49.41941 8.64752 33392 ft 510 kts 181°
2026-04-30 12:40 49.34873 8.63814 33365 ft 510 kts 181°
2026-04-30 12:40 49.27806 8.62817 33352 ft 510 kts 182°
2026-04-30 12:41 49.20741 8.61735 33325 ft 509 kts 181°
2026-04-30 12:41 49.13616 8.60895 33317 ft 523 kts 181°
2026-04-30 12:42 49.06328 8.60038 33311 ft 526 kts 181°
2026-04-30 12:42 48.99018 8.59151 33302 ft 526 kts 181°
2026-04-30 12:43 48.91732 8.58264 33295 ft 525 kts 181°
2026-04-30 12:43 48.84436 8.57378 33290 ft 526 kts 181°
2026-04-30 12:44 48.77152 8.56495 33289 ft 525 kts 181°
2026-04-30 12:44 48.69867 8.55614 33286 ft 525 kts 181°
2026-04-30 12:45 48.62583 8.54739 33282 ft 525 kts 181°
2026-04-30 12:45 48.55302 8.53867 33276 ft 525 kts 181°
2026-04-30 12:46 48.48028 8.52998 33275 ft 525 kts 181°
2026-04-30 12:46 48.40739 8.52129 33272 ft 525 kts 181°
2026-04-30 12:47 48.33460 8.51267 33272 ft 525 kts 181°
2026-04-30 12:47 48.26176 8.50400 33268 ft 525 kts 181°
2026-04-30 12:48 48.18903 8.49541 33261 ft 525 kts 181°
2026-04-30 12:48 48.11626 8.48683 33261 ft 524 kts 181°
2026-04-30 12:49 48.04389 8.47833 33256 ft 524 kts 181°
2026-04-30 12:49 47.97073 8.46973 33255 ft 525 kts 181°
2026-04-30 12:50 47.89796 8.46124 33258 ft 524 kts 181°
2026-04-30 12:50 47.82566 8.45283 33257 ft 525 kts 181°
2026-04-30 12:51 47.75270 8.44435 33248 ft 528 kts 181°
2026-04-30 12:51 47.67947 8.43891 33245 ft 524 kts 175°
2026-04-30 12:52 47.60703 8.44895 33242 ft 522 kts 171°
2026-04-30 12:52 47.53473 8.45985 33239 ft 522 kts 171°
2026-04-30 12:53 47.46242 8.47050 33238 ft 522 kts 171°
2026-04-30 12:53 47.39001 8.48110 33239 ft 523 kts 171°
2026-04-30 12:54 47.31769 8.49166 33238 ft 523 kts 171°
2026-04-30 12:54 47.24538 8.50221 33235 ft 522 kts 171°
2026-04-30 12:55 47.17299 8.51275 33231 ft 523 kts 171°
2026-04-30 12:55 47.10109 8.52318 33219 ft 520 kts 171°
2026-04-30 12:56 47.02821 8.53377 33223 ft 524 kts 172°
2026-04-30 12:56 46.95602 8.54418 33222 ft 525 kts 172°
2026-04-30 12:57 46.88344 8.55461 33229 ft 524 kts 172°
2026-04-30 12:57 46.81127 8.56495 33146 ft 512 kts 172°
2026-04-30 12:58 46.77631 8.56992 32926 ft 497 kts 172°
2026-04-30 12:58 46.74246 8.57471 32653 ft 482 kts 172°
2026-04-30 12:58 46.70937 8.57942 32389 ft 474 kts 171°
2026-04-30 12:58 46.67640 8.58416 32145 ft 476 kts 171°
2026-04-30 12:59 46.64351 8.58889 31664 ft 476 kts 171°
2026-04-30 12:59 46.61063 8.59361 31067 ft 473 kts 171°
2026-04-30 12:59 46.57802 8.59826 30478 ft 469 kts 171°
2026-04-30 12:59 46.54563 8.60286 29829 ft 464 kts 171°
2026-04-30 13:00 46.51375 8.60736 29255 ft 457 kts 171°
2026-04-30 13:00 46.48223 8.61180 28648 ft 452 kts 171°
2026-04-30 13:00 46.45085 8.61195 28067 ft 452 kts 184°
2026-04-30 13:00 46.42031 8.60205 27468 ft 452 kts 198°
2026-04-30 13:01 46.39207 8.58241 26884 ft 450 kts 210°
2026-04-30 13:01 46.36601 8.55840 26298 ft 447 kts 212°
2026-04-30 13:01 46.33982 8.53362 25706 ft 444 kts 212°
2026-04-30 13:01 46.31396 8.50953 25098 ft 441 kts 212°
2026-04-30 13:02 46.28718 8.48833 24470 ft 437 kts 200°
2026-04-30 13:02 46.25805 8.47706 23893 ft 432 kts 185°
2026-04-30 13:02 46.22833 8.47676 23250 ft 425 kts 171°
2026-04-30 13:02 46.19926 8.48165 22680 ft 418 kts 171°
2026-04-30 13:03 46.17054 8.48640 22091 ft 414 kts 171°
2026-04-30 13:03 46.14204 8.49082 21509 ft 409 kts 172°
2026-04-30 13:03 46.11397 8.49647 20931 ft 404 kts 166°
2026-04-30 13:03 46.08708 8.50729 20360 ft 399 kts 158°
2026-04-30 13:04 46.06127 8.52154 19789 ft 396 kts 156°
2026-04-30 13:04 46.03562 8.53553 19216 ft 392 kts 157°
2026-04-30 13:04 46.01010 8.54929 18661 ft 390 kts 158°
2026-04-30 13:04 45.98474 8.56291 18053 ft 388 kts 158°
2026-04-30 13:05 45.95965 8.57636 17497 ft 383 kts 158°
2026-04-30 13:05 45.93483 8.58969 16941 ft 379 kts 158°
2026-04-30 13:05 45.91050 8.60350 16394 ft 374 kts 153°
2026-04-30 13:06 45.87436 8.63591 15503 ft 365 kts 139°
2026-04-30 13:06 45.85489 8.65907 14969 ft 362 kts 139°
2026-04-30 13:06 45.83545 8.68181 14460 ft 360 kts 139°
2026-04-30 13:06 45.81600 8.70436 13897 ft 358 kts 139°
2026-04-30 13:07 45.79673 8.72663 13370 ft 354 kts 139°
2026-04-30 13:07 45.77765 8.74865 12859 ft 350 kts 140°
2026-04-30 13:07 45.75801 8.76899 12383 ft 346 kts 148°
2026-04-30 13:07 45.73721 8.78493 12241 ft 332 kts 151°
2026-04-30 13:08 45.71720 8.80012 12106 ft 318 kts 150°
2026-04-30 13:08 45.69808 8.81485 11933 ft 309 kts 150°
2026-04-30 13:08 45.67932 8.82936 11578 ft 306 kts 150°
2026-04-30 13:08 45.66065 8.84377 11211 ft 303 kts 150°
2026-04-30 13:09 45.64213 8.85802 10813 ft 301 kts 151°
2026-04-30 13:09 45.62366 8.87177 10443 ft 299 kts 156°
2026-04-30 13:09 45.60420 8.88084 10297 ft 288 kts 168°
2026-04-30 13:09 45.58487 8.88577 10175 ft 277 kts 170°
2026-04-30 13:10 45.56607 8.89075 9856 ft 274 kts 169°
2026-04-30 13:10 45.54742 8.89589 9560 ft 271 kts 169°
2026-04-30 13:10 45.52888 8.90100 9180 ft 271 kts 169°
2026-04-30 13:10 45.51054 8.90604 8922 ft 267 kts 169°
2026-04-30 13:11 45.49238 8.91100 8599 ft 265 kts 169°
2026-04-30 13:11 45.47452 8.91587 8275 ft 263 kts 169°
2026-04-30 13:11 45.45657 8.92075 8019 ft 260 kts 169°
2026-04-30 13:11 45.43912 8.92550 7857 ft 253 kts 169°
2026-04-30 13:12 45.42182 8.93020 7608 ft 251 kts 169°
2026-04-30 13:12 45.40475 8.93481 7329 ft 251 kts 168°
2026-04-30 13:12 45.38761 8.93946 7072 ft 249 kts 168°
2026-04-30 13:13 45.35361 8.94869 6550 ft 246 kts 168°
2026-04-30 13:13 45.33671 8.95324 6204 ft 247 kts 168°
2026-04-30 13:13 45.30318 8.96224 5709 ft 243 kts 166°
2026-04-30 13:14 45.28663 8.96673 5446 ft 241 kts 166°
2026-04-30 13:14 45.27028 8.97118 5196 ft 237 kts 166°
2026-04-30 13:14 45.23851 8.96782 4707 ft 239 kts 210°
2026-04-30 13:15 45.22743 8.95028 4544 ft 243 kts 243°
2026-04-30 13:15 45.22962 8.90369 4302 ft 249 kts 307°
2026-04-30 13:15 45.24218 8.88777 4168 ft 239 kts 336°
2026-04-30 13:16 45.25700 8.87771 4024 ft 234 kts 337°
2026-04-30 13:16 45.27171 8.86799 4004 ft 235 kts 337°
2026-04-30 13:16 45.28651 8.85801 4008 ft 236 kts 338°
2026-04-30 13:17 45.31557 8.83792 4005 ft 223 kts 337°
2026-04-30 13:17 45.32916 8.82836 4001 ft 212 kts 336°
2026-04-30 13:17 45.35511 8.81124 4004 ft 202 kts 343°
2026-04-30 13:18 45.36871 8.80575 4010 ft 203 kts 351°
2026-04-30 13:18 45.39613 8.79790 4016 ft 198 kts 353°
2026-04-30 13:18 45.40959 8.79420 4014 ft 196 kts 352°
2026-04-30 13:19 45.42277 8.79059 4007 ft 191 kts 353°
2026-04-30 13:19 45.43564 8.78707 4010 ft 188 kts 353°
2026-04-30 13:19 45.44847 8.78354 4005 ft 184 kts 352°
2026-04-30 13:19 45.46100 8.78013 3851 ft 183 kts 351°
2026-04-30 13:20 45.47341 8.77667 3593 ft 181 kts 351°
2026-04-30 13:20 45.48571 8.77332 3352 ft 180 kts 351°
2026-04-30 13:20 45.49796 8.76994 3107 ft 179 kts 351°
2026-04-30 13:20 45.51008 8.76660 2872 ft 178 kts 352°
2026-04-30 13:21 45.52186 8.76336 2626 ft 169 kts 353°
2026-04-30 13:21 45.53276 8.76033 2428 ft 152 kts 351°
2026-04-30 13:21 45.54283 8.75760 2227 ft 145 kts 352°
2026-04-30 13:22 45.56236 8.75223 1824 ft 143 kts 353°
2026-04-30 13:22 45.57206 8.74953 1642 ft 143 kts 350°
2026-04-30 13:22 45.59139 8.74410 1266 ft 141 kts 350°
2026-04-30 13:23 45.60094 8.74144 1076 ft 140 kts 351°
2026-04-30 13:23 45.61992 8.73620 750 ft 128 kts 349°
2026-04-30 13:24 45.63054 8.73310 738 ft 45 kts 335°
2026-04-30 13:24 45.63349 8.72869 744 ft 29 kts 303°
2026-04-30 13:25 45.63374 8.72392 742 ft 22 kts 259°
2026-04-30 13:25 45.63310 8.71935 746 ft 19 kts 255°
2026-04-30 13:26 45.62979 8.71874 744 ft 13 kts 249°
2026-04-30 13:26 45.62975 8.71659 743 ft 8 kts 329°
2026-04-30 13:27 45.63030 8.71611 742 ft 0 kts 327°